Weather History for Jaipur / Sanganer, India

Change the Weather History Date:

Saturday, October 20, 2012

  Actual Average Record
Temperature  
Mean Temperature 82 °F -  
Max Temperature 91 °F - - ()
Min Temperature 73 °F - - ()
Cooling Degree Days 17    
Growing Degree Days 32 (Base 50)    
Moisture  
Dew Point 61 °F    
Average Humidity 52    
Maximum Humidity 65    
Minimum Humidity 31    
Precipitation  
Precipitation 0.00 in - - ()
Sea Level Pressure  
Sea Level Pressure 30.00 in    
Wind  
Wind Speed 4 mph ()    
Max Wind Speed 10 mph    
Max Gust Speed -    
Visibility 1.9 miles    
Events      
T = Trace of Precipitation, MM = Missing Value Source: Averaged Metar Reports

Daily Weather History Graph

Daily Weather History Graph

Search for Another Location

Airport:

Trip Planner

Search our weather history database for the weather conditions in past years. The results will help you decide how hot, cold, wet, or windy it might be!

Date:

Astronomy

Oct. 20, 2012 Rise Set
Actual Time 6:29 AM IST 5:53 PM IST
Civil Twilight 6:05 AM IST 6:17 PM IST
Nautical Twilight 5:38 AM IST 6:44 PM IST
Astronomical Twilight 5:11 AM IST 7:11 PM IST
Moon 11:24 AM IST (10/20) 10:24 PM IST (10/20)
Length of Visible Light 12h 11m
Length of Day
11h 24m
Waxing Crescent, 29% of the Moon is Illuminated
Oct 20
Waxing Crescent
Oct 22
First Quarter
Oct 30
Full
Nov 7
Last Quarter
Nov 14
New

Hourly Weather History & Observations

Time (IST) Temp. Heat Index Dew Point Humidity Pressure Visibility Wind Dir Wind Speed Gust Speed Precip Events Conditions
12:00 AM 75.2 °F - 60.8 °F 61% 30.01 in 1.9 mi Calm Calm - N/A   Haze
1:00 AM 75.2 °F - 60.8 °F 61% 29.98 in 1.9 mi Calm Calm - N/A   Haze
2:00 AM 77.0 °F - 60.8 °F 57% 29.98 in 1.9 mi Variable 2.3 mph - N/A   Haze
2:30 AM 76 °F - 62 °F 52% 29.91 in 1 mi East 5.8 mph - -   Haze
2:30 AM 77.0 °F - 60.8 °F 57% 29.98 in 1.9 mi ENE 6.9 mph - N/A   Haze
3:00 AM 75.2 °F - 60.8 °F 61% 29.98 in 1.9 mi ENE 5.8 mph - N/A   Haze
4:00 AM 75.2 °F - 60.8 °F 61% 29.98 in 1.9 mi ENE 5.8 mph - N/A   Haze
5:00 AM 73.4 °F - 60.8 °F 65% 29.98 in 1.9 mi ENE 4.6 mph - N/A   Haze
5:30 AM 73 °F - 61 °F 57% 29.93 in 1 mi East 5.8 mph - -   Haze
5:30 AM 73.4 °F - 60.8 °F 65% 29.98 in 1.9 mi East 5.8 mph - N/A   Haze
6:00 AM 73.4 °F - 60.8 °F 65% 30.01 in 1.9 mi East 4.6 mph - N/A   Haze
6:30 AM 73.4 °F - 60.8 °F 65% 30.01 in 1.9 mi ENE 5.8 mph - N/A   Haze
7:00 AM 73.4 °F - 60.8 °F 65% 30.01 in 1.9 mi East 4.6 mph - N/A   Haze
7:30 AM 75.2 °F - 60.8 °F 61% 30.04 in 1.9 mi ENE 6.9 mph - N/A   Haze
8:00 AM 77.0 °F - 60.8 °F 57% 30.04 in 1.9 mi ENE 5.8 mph - N/A   Haze
8:30 AM 78.8 °F - 60.8 °F 54% 30.04 in 1.9 mi East 5.8 mph - N/A   Haze
9:00 AM 80.6 °F 81.5 °F 60.8 °F 51% 30.06 in 1.9 mi East 6.9 mph - N/A   Haze
9:30 AM 82.4 °F 82.9 °F 60.8 °F 48% 30.06 in 1.9 mi East 6.9 mph - N/A   Haze
10:00 AM 82.4 °F 82.9 °F 60.8 °F 48% 30.06 in 1.9 mi ESE 6.9 mph - N/A   Haze
10:30 AM 84.2 °F 84.4 °F 60.8 °F 45% 30.06 in 1.9 mi SE 5.8 mph - N/A   Haze
11:00 AM 86.0 °F 86.1 °F 60.8 °F 43% 30.06 in 1.9 mi SE 6.9 mph - N/A   Haze
11:30 AM 88 °F - 71 °F 49% 29.97 in 1 mi SE 4.6 mph - -   Haze
11:30 AM 86.0 °F 89.4 °F 68.0 °F 55% 30.04 in 1.9 mi SSE 6.9 mph - N/A   Haze
12:00 PM 87.8 °F 91.4 °F 68.0 °F 52% 30.04 in 2.5 mi SSE 6.9 mph - N/A   Haze
1:00 PM 87.8 °F 91.4 °F 68.0 °F 52% 30.01 in 2.5 mi SSW 6.9 mph - N/A   Haze
1:30 PM 89.6 °F 93.4 °F 68.0 °F 49% 30.01 in 2.5 mi Variable 4.6 mph - N/A   Haze
2:00 PM 89.6 °F 93.4 °F 68.0 °F 49% 29.98 in 2.5 mi SSW 3.5 mph - N/A   Haze
3:00 PM 91.4 °F 89.9 °F 57.2 °F 31% 29.98 in 2.5 mi Variable 3.5 mph - N/A   Haze
4:00 PM 89.6 °F 88.1 °F 57.2 °F 33% 29.95 in 2.5 mi Calm Calm - N/A   Haze
5:00 PM 87.8 °F 86.5 °F 57.2 °F 35% 29.98 in 2.5 mi East 4.6 mph - N/A   Haze
6:00 PM 80.6 °F 81.5 °F 60.8 °F 51% 29.98 in 2.5 mi NE 8.1 mph - N/A   Haze
8:00 PM 80.6 °F 81.5 °F 60.8 °F 51% 30.04 in 1.9 mi NE 9.2 mph - N/A   Haze
8:30 PM 80 °F - 55 °F 31% 29.96 in 1 mi NE 10.4 mph - -   Haze
9:00 PM 78.8 °F - 57.2 °F 47% 30.04 in 1.9 mi NE 4.6 mph - N/A   Haze
10:00 PM 77.0 °F - 59.0 °F 54% 30.04 in 1.9 mi Calm Calm - N/A   Haze
11:00 PM 75.2 °F - 59.0 °F 57% 30.04 in 1.9 mi East 6.9 mph - N/A   Haze
11:30 PM 75 °F - 57 °F 43% 29.96 in 1 mi ENE 4.6 mph - -   Haze